Time,TemperatureF,DewpointF,PressureIn,WindDirection,WindDirectionDegrees,WindSpeedMPH,WindSpeedGustMPH,Humidity,HourlyPrecipIn,Conditions,Clouds,dailyrainin,SoftwareType,DateUTC
2013-06-21 00:05:00,76.5,70.6,29.93,SSE,157,0.0,-999.0,82,-99.99,,,0.00,Acu-Link.com,2013-06-21 05:05:00,
2013-06-21 00:21:00,75.9,70.7,29.91,NE,45,0.0,-999.0,84,-99.99,,,0.00,Acu-Link.com,2013-06-21 05:21:00,
2013-06-21 00:36:00,75.6,70.8,29.95,NNW,337,0.0,-999.0,85,-99.99,,,0.00,Acu-Link.com,2013-06-21 05:36:00,
2013-06-21 00:51:00,75.2,70.4,29.96,NE,45,0.0,-999.0,85,-99.99,,,0.00,Acu-Link.com,2013-06-21 05:51:00,
2013-06-21 01:06:00,74.8,70.3,29.92,NW,315,0.0,-999.0,86,-99.99,,,0.00,Acu-Link.com,2013-06-21 06:06:00,
2013-06-21 01:21:00,74.5,70.0,29.94,ESE,112,0.0,-999.0,86,-99.99,,,0.00,Acu-Link.com,2013-06-21 06:21:00,
2013-06-21 01:37:00,74.3,70.2,29.90,ESE,112,0.0,-999.0,87,-99.99,,,0.00,Acu-Link.com,2013-06-21 06:37:00,
2013-06-21 01:52:00,74.3,70.2,29.92,SSE,157,0.0,-999.0,87,-99.99,,,0.00,Acu-Link.com,2013-06-21 06:52:00,
2013-06-21 02:07:00,74.1,70.0,29.92,West,270,0.0,-999.0,87,-99.99,,,0.00,Acu-Link.com,2013-06-21 07:07:00,
2013-06-21 02:22:00,73.9,69.8,29.89,West,270,0.0,-999.0,87,-99.99,,,0.00,Acu-Link.com,2013-06-21 07:22:00,
2013-06-21 02:37:00,73.8,70.0,29.94,West,270,0.0,-999.0,88,-99.99,,,0.00,Acu-Link.com,2013-06-21 07:37:00,
2013-06-21 02:53:00,73.4,69.6,29.93,SE,135,0.0,-999.0,88,-99.99,,,0.00,Acu-Link.com,2013-06-21 07:53:00,
2013-06-21 03:08:00,73.4,69.6,29.89,WSW,247,0.0,-999.0,88,-99.99,,,0.00,Acu-Link.com,2013-06-21 08:08:00,
2013-06-21 03:23:00,73.2,69.4,29.94,NNW,337,0.0,-999.0,88,-99.99,,,0.00,Acu-Link.com,2013-06-21 08:23:00,
2013-06-21 03:39:00,73.0,69.2,29.93,West,270,0.0,-999.0,88,-99.99,,,0.00,Acu-Link.com,2013-06-21 08:39:00,
2013-06-21 03:54:00,72.7,68.9,29.89,SW,225,0.0,-999.0,88,-99.99,,,0.00,Acu-Link.com,2013-06-21 08:54:00,
2013-06-21 04:09:00,72.9,69.5,29.91,NW,315,0.0,-999.0,89,-99.99,,,0.00,Acu-Link.com,2013-06-21 09:09:00,
2013-06-21 04:24:00,72.7,69.6,29.94,West,270,0.0,-999.0,90,-99.99,,,0.00,Acu-Link.com,2013-06-21 09:24:00,
2013-06-21 04:39:00,72.9,69.8,29.93,WNW,292,0.0,-999.0,90,-99.99,,,0.00,Acu-Link.com,2013-06-21 09:39:00,
2013-06-21 04:54:00,72.9,69.8,29.91,NE,45,0.0,-999.0,90,-99.99,,,0.00,Acu-Link.com,2013-06-21 09:54:00,
2013-06-21 05:09:00,72.7,69.6,29.90,ENE,67,0.0,-999.0,90,-99.99,,,0.00,Acu-Link.com,2013-06-21 10:09:00,
2013-06-21 05:25:00,73.0,69.9,29.93,NW,315,0.0,-999.0,90,-99.99,,,0.00,Acu-Link.com,2013-06-21 10:25:00,
2013-06-21 05:40:00,72.7,69.6,29.96,ESE,112,0.0,-999.0,90,-99.99,,,0.00,Acu-Link.com,2013-06-21 10:40:00,
2013-06-21 05:55:00,72.7,69.6,29.93,North,0,0.0,-999.0,90,-99.99,,,0.00,Acu-Link.com,2013-06-21 10:55:00,
2013-06-21 06:10:00,72.7,69.6,29.95,East,90,0.0,-999.0,90,-99.99,,,0.00,Acu-Link.com,2013-06-21 11:10:00,
2013-06-21 06:26:00,72.5,69.4,29.92,East,90,0.0,-999.0,90,-99.99,,,0.00,Acu-Link.com,2013-06-21 11:26:00,
2013-06-21 06:56:00,73.9,71.1,29.93,SE,135,0.0,-999.0,91,-99.99,,,0.00,Acu-Link.com,2013-06-21 11:56:00,
2013-06-21 07:11:00,75.9,71.7,29.95,East,90,0.0,-999.0,87,-99.99,,,0.00,Acu-Link.com,2013-06-21 12:11:00,
2013-06-21 07:26:00,78.4,72.1,29.95,NNW,337,0.0,-999.0,81,-99.99,,,0.00,Acu-Link.com,2013-06-21 12:26:00,
2013-06-21 07:42:00,81.3,71.8,29.92,SE,135,0.0,-999.0,73,-99.99,,,0.00,Acu-Link.com,2013-06-21 12:42:00,
2013-06-21 07:57:00,83.7,72.4,29.95,SSW,202,0.0,-999.0,69,-99.99,,,0.00,Acu-Link.com,2013-06-21 12:57:00,
2013-06-21 08:12:00,86.4,72.3,29.94,NNW,337,0.0,-999.0,63,-99.99,,,0.00,Acu-Link.com,2013-06-21 13:12:00,
2013-06-21 08:27:00,88.2,72.0,29.92,North,0,0.0,-999.0,59,-99.99,,,0.00,Acu-Link.com,2013-06-21 13:27:00,
2013-06-21 08:42:00,90.0,72.2,29.95,NNE,22,0.0,-999.0,56,-99.99,,,0.00,Acu-Link.com,2013-06-21 13:42:00,
2013-06-21 08:58:00,84.9,72.2,29.94,SSE,157,0.0,-999.0,66,-99.99,,,0.00,Acu-Link.com,2013-06-21 13:58:00,
2013-06-21 09:13:00,86.5,72.4,29.97,North,0,0.0,-999.0,63,-99.99,,,0.00,Acu-Link.com,2013-06-21 14:13:00,
2013-06-21 09:28:00,87.8,72.2,29.96,SSW,202,0.0,-999.0,60,-99.99,,,0.00,Acu-Link.com,2013-06-21 14:28:00,
2013-06-21 09:44:00,87.6,71.0,29.94,NNW,337,2.7,-999.0,58,-99.99,,,0.00,Acu-Link.com,2013-06-21 14:44:00,
2013-06-21 09:59:00,88.9,70.6,29.96,SSE,157,3.7,-999.0,55,-99.99,,,0.00,Acu-Link.com,2013-06-21 14:59:00,
2013-06-21 10:14:00,89.1,71.3,29.92,South,180,2.7,-999.0,56,-99.99,,,0.00,Acu-Link.com,2013-06-21 15:14:00,
2013-06-21 10:29:00,90.5,71.0,29.95,ESE,112,2.7,-999.0,53,-99.99,,,0.00,Acu-Link.com,2013-06-21 15:29:00,
2013-06-21 10:44:00,90.5,70.4,29.92,South,180,3.2,-999.0,52,-99.99,,,0.00,Acu-Link.com,2013-06-21 15:44:00,
2013-06-21 11:00:00,91.0,70.9,29.94,ENE,67,2.2,-999.0,52,-99.99,,,0.00,Acu-Link.com,2013-06-21 16:00:00,
2013-06-21 11:18:00,93.6,70.3,29.94,SSW,202,3.2,-999.0,47,-99.99,,,0.00,Acu-Link.com,2013-06-21 16:18:00,
2013-06-21 11:34:00,92.5,69.3,29.95,ESE,112,2.7,-999.0,47,-99.99,,,0.00,Acu-Link.com,2013-06-21 16:34:00,
2013-06-21 12:09:00,92.5,69.3,29.92,North,0,3.2,-999.0,47,-99.99,,,0.00,Acu-Link.com,2013-06-21 17:09:00,
2013-06-21 12:24:00,93.7,69.1,29.92,SSW,202,3.2,-999.0,45,-99.99,,,0.00,Acu-Link.com,2013-06-21 17:24:00,
2013-06-21 12:41:00,93.0,71.0,29.96,ESE,112,5.3,-999.0,49,-99.99,,,0.00,Acu-Link.com,2013-06-21 17:41:00,
2013-06-21 13:11:00,94.1,68.8,29.96,South,180,4.2,-999.0,44,-99.99,,,0.00,Acu-Link.com,2013-06-21 18:11:00,
2013-06-21 13:27:00,95.4,70.6,29.92,SSW,202,0.0,-999.0,45,-99.99,,,0.00,Acu-Link.com,2013-06-21 18:27:00,
2013-06-21 13:42:00,92.1,68.9,29.95,NW,315,1.7,-999.0,47,-99.99,,,0.00,Acu-Link.com,2013-06-21 18:42:00,
2013-06-21 13:57:00,94.1,69.5,29.91,SSW,202,3.7,-999.0,45,-99.99,,,0.00,Acu-Link.com,2013-06-21 18:57:00,
2013-06-21 14:12:00,94.6,68.6,29.96,South,180,3.7,-999.0,43,-99.99,,,0.00,Acu-Link.com,2013-06-21 19:12:00,
2013-06-21 14:27:00,96.6,71.1,29.93,North,0,3.2,-999.0,44,-99.99,,,0.00,Acu-Link.com,2013-06-21 19:27:00,
2013-06-21 14:43:00,95.7,70.2,29.92,NE,45,2.7,-999.0,44,-99.99,,,0.00,Acu-Link.com,2013-06-21 19:43:00,
2013-06-21 14:58:00,95.7,69.6,29.88,South,180,2.7,-999.0,43,-99.99,,,0.00,Acu-Link.com,2013-06-21 19:58:00,
2013-06-21 15:13:00,94.3,69.0,29.88,NE,45,2.2,-999.0,44,-99.99,,,0.00,Acu-Link.com,2013-06-21 20:13:00,
2013-06-21 15:30:00,95.0,68.3,29.91,SE,135,4.2,-999.0,42,-99.99,,,0.00,Acu-Link.com,2013-06-21 20:30:00,
2013-06-21 15:45:00,94.5,68.5,29.88,SSE,157,5.3,-999.0,43,-99.99,,,0.00,Acu-Link.com,2013-06-21 20:45:00,
2013-06-21 16:02:00,93.7,68.4,29.88,NE,45,2.7,-999.0,44,-99.99,,,0.00,Acu-Link.com,2013-06-21 21:02:00,
2013-06-21 16:17:00,94.3,67.6,29.86,SSE,157,3.2,-999.0,42,-99.99,,,0.00,Acu-Link.com,2013-06-21 21:17:00,
2013-06-21 16:32:00,93.2,65.9,29.90,SSE,157,1.7,-999.0,41,-99.99,,,0.00,Acu-Link.com,2013-06-21 21:32:00,
2013-06-21 16:47:00,94.8,67.4,29.90,ESE,112,1.7,-999.0,41,-99.99,,,0.00,Acu-Link.com,2013-06-21 21:47:00,
2013-06-21 17:03:00,96.3,68.0,29.86,NNW,337,0.0,-999.0,40,-99.99,,,0.00,Acu-Link.com,2013-06-21 22:03:00,
2013-06-21 17:18:00,94.8,72.0,29.90,NW,315,0.0,-999.0,48,-99.99,,,0.00,Acu-Link.com,2013-06-21 22:18:00,
2013-06-21 17:34:00,96.3,70.8,29.90,NNE,22,2.2,-999.0,44,-99.99,,,0.00,Acu-Link.com,2013-06-21 22:34:00,
2013-06-21 17:49:00,97.3,71.7,29.86,West,270,2.7,-999.0,44,-99.99,,,0.00,Acu-Link.com,2013-06-21 22:49:00,
2013-06-21 18:04:00,96.8,69.9,29.88,SW,225,1.1,-999.0,42,-99.99,,,0.00,Acu-Link.com,2013-06-21 23:04:00,
2013-06-21 18:19:00,95.7,70.2,29.86,WSW,247,0.0,-999.0,44,-99.99,,,0.00,Acu-Link.com,2013-06-21 23:19:00,
2013-06-21 18:35:00,91.2,72.2,29.86,North,0,1.7,-999.0,54,-99.99,,,0.00,Acu-Link.com,2013-06-21 23:35:00,
2013-06-21 18:50:00,91.0,73.1,29.89,WNW,292,2.2,-999.0,56,-99.99,,,0.00,Acu-Link.com,2013-06-21 23:50:00,
2013-06-21 19:05:00,91.8,72.7,29.89,SW,225,0.0,-999.0,54,-99.99,,,0.00,Acu-Link.com,2013-06-22 00:05:00,
2013-06-21 19:20:00,90.1,72.3,29.89,SW,225,4.2,-999.0,56,-99.99,,,0.00,Acu-Link.com,2013-06-22 00:20:00,
2013-06-21 19:35:00,88.2,72.0,29.89,SSW,202,2.2,-999.0,59,-99.99,,,0.00,Acu-Link.com,2013-06-22 00:35:00,
2013-06-21 19:51:00,86.5,71.4,29.89,WSW,247,0.0,-999.0,61,-99.99,,,0.00,Acu-Link.com,2013-06-22 00:51:00,
2013-06-21 20:06:00,85.1,71.1,29.87,West,270,0.0,-999.0,63,-99.99,,,0.00,Acu-Link.com,2013-06-22 01:06:00,
2013-06-21 20:21:00,84.2,71.1,29.88,SSW,202,0.0,-999.0,65,-99.99,,,0.00,Acu-Link.com,2013-06-22 01:21:00,
2013-06-21 20:37:00,83.1,71.0,29.93,WNW,292,0.0,-999.0,67,-99.99,,,0.00,Acu-Link.com,2013-06-22 01:37:00,
2013-06-21 20:52:00,83.3,70.3,29.88,WSW,247,0.0,-999.0,65,-99.99,,,0.00,Acu-Link.com,2013-06-22 01:52:00,
2013-06-21 21:07:00,83.1,70.1,29.91,SSW,202,0.0,-999.0,65,-99.99,,,0.00,Acu-Link.com,2013-06-22 02:07:00,
2013-06-21 21:23:00,82.4,69.4,29.91,North,0,0.0,-999.0,65,-99.99,,,0.00,Acu-Link.com,2013-06-22 02:23:00,
2013-06-21 21:38:00,81.5,69.9,29.88,SSW,202,2.7,-999.0,68,-99.99,,,0.00,Acu-Link.com,2013-06-22 02:38:00,
2013-06-21 21:53:00,81.0,70.7,29.88,ESE,112,1.1,-999.0,71,-99.99,,,0.00,Acu-Link.com,2013-06-22 02:53:00,
2013-06-21 22:08:00,80.6,71.1,29.88,WSW,247,0.0,-999.0,73,-99.99,,,0.00,Acu-Link.com,2013-06-22 03:08:00,
2013-06-21 22:23:00,79.9,71.2,29.93,NNW,337,0.0,-999.0,75,-99.99,,,0.00,Acu-Link.com,2013-06-22 03:23:00,
2013-06-21 22:39:00,79.3,70.7,29.94,WNW,292,1.7,-999.0,75,-99.99,,,0.00,Acu-Link.com,2013-06-22 03:39:00,
2013-06-21 22:54:00,79.0,70.4,29.94,ENE,67,0.0,-999.0,75,-99.99,,,0.00,Acu-Link.com,2013-06-22 03:54:00,
2013-06-21 23:09:00,78.4,70.2,29.93,SSW,202,0.0,-999.0,76,-99.99,,,0.00,Acu-Link.com,2013-06-22 04:09:00,
2013-06-21 23:24:00,78.1,70.7,29.91,SSW,202,0.0,-999.0,78,-99.99,,,0.00,Acu-Link.com,2013-06-22 04:24:00,
2013-06-21 23:39:00,77.4,70.7,29.90,WNW,292,0.0,-999.0,80,-99.99,,,0.00,Acu-Link.com,2013-06-22 04:39:00,
2013-06-21 23:55:00,77.2,70.5,29.90,NNW,337,0.0,-999.0,80,-99.99,,,0.00,Acu-Link.com,2013-06-22 04:55:00,